Regional Weather Roundup
Issued by NWS

Home | Current Version | Previous Version | Graphics & Text | Print | Product List | Glossary On
Versions: 1 2 3 4 5 6 7 8 9 10 11 12 13 14 15 16 17 18 19 20 21 22 23 24 25 26 27 28 29 30 31 32 33 34 35 36 37 38 39 40 41 42 43 44 45 46 47 48 49 50
000
ASUS43 KOAX 012010
RWRNE

WEATHER ROUNDUP FOR NEBRASKA
NATIONAL WEATHER SERVICE OMAHA NE
200 PM CST SUN FEB 01 2015

NOTES: SATELLITE DATA IS BEING USED TO AUGMENT CLOUD COVER ABOVE
       12000 FEET.
       "FAIR" INDICATES FEW OR NO CLOUDS BELOW 12,000 FEET WITH NO
       SIGNIFICANT WEATHER AND/OR OBSTRUCTIONS TO VISIBILITY.

  * THESE STATIONS DO NOT REPORT WEATHER SUCH AS RAIN...SNOW OR FOG.

NEZ001>004-019>022-054>056-012100-
NEBRASKA PANHANDLE

CITY           SKY/WX    TMP DP  RH WIND       PRES   REMARKS
SCOTTSBLUFF    PTSUNNY   20   9  62 N20       30.25F WCI   4
ALLIANCE       PTSUNNY    9   2  73 N17       30.24F WCI  -9
CHADRON        MOSUNNY   11   4  73 VRB3      30.32F
KIMBALL        SUNNY     20  10  67 NW23G32   30.14F WCI   3
SIDNEY         CLOUDY    14   7  73 N21       30.22F WCI  -4
$$

NEZ057>060-069>072-079>082-012100-
SOUTHWEST NEBRASKA

CITY           SKY/WX    TMP DP  RH WIND       PRES   REMARKS
NORTH PLATTE   PTSUNNY    9   0  67 N25G36    30.27S WCI -12
IMPERIAL       MOSUNNY   14   3  61 N31       30.26S WCI  -7
LEXINGTON      CLOUDY    12   6  75 N24G31    30.25R WCI  -8
MCCOOK         CLOUDY    15   5  64 NW30G38   30.25F WCI  -5
OGALLALA       PTSUNNY   12   4  70 N20       30.28S WCI  -6
$$

NEZ005>010-023>029-035>040-094-012100-
NORTH CENTRAL NEBRASKA

CITY           SKY/WX    TMP DP  RH WIND       PRES   REMARKS
VALENTINE      MIX PCPN   4  -4  69 N17G28    30.33F WCI -16
AINSWORTH      CLOUDY     4  -2  75 NW25      30.30S HAZE    WCI -19
BROKEN BOW     LGT SNOW   8   1  73 N24G37    30.23S WCI -13
O`NEILL        CLOUDY     5  -1  79 NW26G32   30.28S HAZE    WCI -18
ORD            LGT SNOW   6  -1  73 NW24G36   30.24S WCI -16
THEDFORD       MOSUNNY    6  -1  73 N24G31    30.28S HAZE    WCI -15
$$

NEZ041-046>049-061>064-073>077-083>087-012100-
SOUTH CENTRAL NEBRASKA

CITY           SKY/WX    TMP DP  RH WIND       PRES   REMARKS
GRAND ISLAND   BLWGSNOW   7   2  80 NW30G38   30.21S VSB 1/2 WCI -16
AURORA         LGT SNOW   9   5  84 N30G37    30.19R VSB 3/4 WCI -14
HASTINGS       HVY SNOW   9   4  80 N33       30.18S VSB 1/4 WCI -15
HEBRON         LGT SNOW  10   5  79 N14G28    30.16R VSB 1   WCI  -6
HOLDREGE       CLOUDY    11   5  76 N23G33    30.21R HAZE    WCI  -8
KEARNEY *      CLOUDY    10   3  72 N29G38    30.21S WCI -11
YORK           LGT SNOW   7   3  85 N21G26    30.17R VSB 1   WCI -13
$$

NEZ011>018-030>034-042>045-012100-
NORTHEAST NEBRASKA

CITY           SKY/WX    TMP DP  RH WIND       PRES   REMARKS
NORFOLK        LGT SNOW   5   0  79 NW26G37   30.21S VSB 1   WCI -18
ALBION         LGT SNOW   6  -1  73 NW29G36   30.20F WCI -17
BLAIR          LGT SNOW  15  10  80 NW22G32   30.08R WCI  -2
FREMONT        CLOUDY    12   8  83 NW24G32   30.16R WCI  -8
TEKAMAH        SNOW      14   9  80 N32       30.15R VSB 1/2 WCI  -7
WAYNE          LGT SNOW   8   2  78 N26G32    30.21S WCI -14
$$

NEZ050>053-065>068-078-088>093-012100-
SOUTHEAST NEBRASKA

CITY           SKY/WX    TMP DP  RH WIND       PRES   REMARKS
LINCOLN        LGT SNOW  11   5  77 N31G40    30.15R VSB 3/4 WCI -11
OMAHA EPPLEY   SNOW      16  12  84 N28G38    30.09R VSB 1/2 WCI  -4
BEATRICE       LGT SNOW  11   7  81 N21G26    30.11R WCI  -7
FALLS CITY     LGT SNOW  20  15  81 NW20G33   30.00R VSB 3/4 WCI   4
NEBRASKA CITY  LGT SNOW  17  13  82 N28G35    30.03R WCI  -2
PLATTSMOUTH    LGT SNOW  17  12  81 NW28G33   30.05R VSB 1   WCI  -3
$$

NEZ044-045-051>053-067-012100-
OMAHA AREA

CITY           SKY/WX    TMP DP  RH WIND       PRES   REMARKS
OMAHA EPPLEY   SNOW      16  12  84 N28G38    30.09R VSB 1/2 WCI  -4
BLAIR          LGT SNOW  15  10  80 NW22G32   30.08R WCI  -2
FREMONT        CLOUDY    12   8  83 NW24G32   30.16R WCI  -8
MILLARD        LGT SNOW  15  10  78 NW6       30.11R VSB 1   WCI   7
OFFUTT AFB     LGT SNOW  16  10  79 NW21G32   30.08R WCI  -2
PLATTSMOUTH    LGT SNOW  17  12  81 NW28G33   30.05R VSB 1   WCI  -3
WAHOO          SNOW      11   6  79 MISG      30.14R VSB 1/2
$$


USA.gov is the U.S. government's official web portal to all federal, state and local government web resources and services.